EW5196 Weather Reports


time (UTC)temp
C
wind
direction
speed
KPH
gust
KPH
rain 1hr
cm
rain 24hr
cm
rain mn
cm
humidity
%
barometer
mb
20260505120540 16 140 3.2 4.8 0.00 0.00 0.00 73 1016.5
20260505120036 16 150 3.2 3.2 0.00 0.00 0.00 72 1016.5
20260505115530 16 105 3.2 4.8 0.00 0.00 0.00 73 1016.4
20260505115028 15 114 3.2 4.8 0.00 0.00 0.00 74 1016.5
20260505114525 15 147 3.2 4.8 0.00 0.00 0.00 76 1016.4
20260505114021 15 111 1.6 4.8 0.00 0.00 0.00 77 1016.2
20260505113518 14 130 3.2 4.8 0.00 0.00 0.00 78 1016.1
20260505113014 14 131 3.2 4.8 0.00 0.00 0.00 78 1016.0
20260505112511 14 139 3.2 4.8 0.00 0.00 0.00 79 1016.2
20260505112009 14 156 3.2 4.8 0.00 0.00 0.00 78 1016.0
20260505111502 14 145 3.2 3.2 0.00 0.00 0.00 78 1016.1
20260505110958 14 148 3.2 4.8 0.00 0.00 0.00 78 1015.9
20260505110449 13 140 3.2 4.8 0.00 0.00 0.00 78 1015.8
20260505101921 13 147 3.2 3.2 0.00 0.00 0.00 78 1015.4
20260505101415 13 129 3.2 3.2 0.00 0.00 0.00 77 1015.3
20260505100911 13 130 1.6 3.2 0.00 0.00 0.00 78 1015.4
20260505100408 14 122 3.2 3.2 0.00 0.00 0.00 78 1015.5
20260505095903 14 136 3.2 3.2 0.00 0.00 0.00 76 1015.4
20260505095401 14 122 3.2 3.2 0.00 0.00 0.00 76 1015.6
20260505094857 14 155 3.2 3.2 0.00 0.00 0.00 77 1015.4
20260505094354 14 139 3.2 3.2 0.00 0.00 0.00 76 1015.5
20260505093849 14 140 3.2 3.2 0.00 0.00 0.00 76 1015.3
20260505093347 15 144 3.2 3.2 0.00 0.00 0.00 75 1015.5
20260505092844 15 149 3.2 4.8 0.00 0.00 0.00 74 1015.5
20260505092342 15 125 3.2 3.2 0.00 0.00 0.00 74 1015.4
20260505091839 15 195 3.2 6.4 0.00 0.00 0.00 74 1015.3
20260505091337 15 149 3.2 4.8 0.00 0.00 0.00 74 1015.5
20260505090835 15 149 3.2 4.8 0.00 0.00 0.00 74 1015.3
20260505090333 15 140 3.2 4.8 0.00 0.00 0.00 74 1015.3
20260505085830 15 142 3.2 4.8 0.00 0.00 0.00 73 1015.3
20260505085328 15 151 3.2 4.8 0.00 0.00 0.00 73 1015.0
20260505084825 15 152 3.2 4.8 0.00 0.00 0.00 73 1015.2
20260505084324 15 145 3.2 4.8 0.00 0.00 0.00 73 1015.4
20260505083820 15 99 3.2 4.8 0.00 0.00 0.00 72 1015.4
20260505083318 15 130 1.6 4.8 0.00 0.00 0.00 71 1015.2
20260505082814 15 130 3.2 4.8 0.00 0.00 0.00 71 1015.3
20260505082311 15 152 3.2 3.2 0.00 0.00 0.00 71 1015.4
20260505081807 15 131 1.6 4.8 0.00 0.00 0.00 71 1015.2
20260505081304 15 127 4.8 4.8 0.00 0.00 0.00 70 1015.1
20260505080801 15 156 3.2 3.2 0.00 0.00 0.00 70 1015.0
20260505080256 15 102 3.2 4.8 0.00 0.00 0.00 70 1015.2
20260505075752 15 118 3.2 3.2 0.00 0.00 0.00 69 1015.2
20260505075249 15 151 3.2 3.2 0.00 0.00 0.00 70 1015.2
20260505074747 15 127 3.2 3.2 0.00 0.00 0.00 69 1014.9
20260505074244 15 161 3.2 4.8 0.00 0.00 0.00 68 1015.0
20260505073741 15 149 1.6 4.8 0.00 0.00 0.00 68 1015.0
20260505073239 15 154 3.2 4.8 0.00 0.00 0.00 67 1015.0
20260505072735 15 153 3.2 4.8 0.00 0.00 0.00 67 1014.9
20260505072231 15 148 3.2 3.2 0.00 0.00 0.00 66 1014.8
20260505071727 15 145 1.6 3.2 0.00 0.00 0.00 66 1014.8
20260505071224 15 128 1.6 4.8 0.00 0.00 0.00 65 1014.9
20260505070716 15 155 3.2 3.2 0.00 0.00 0.00 66 1014.8
20260505070212 15 147 3.2 3.2 0.00 0.00 0.00 65 1014.7
20260505065708 15 159 3.2 3.2 0.00 0.00 0.00 66 1014.9
20260505065205 16 141 3.2 4.8 0.00 0.00 0.00 64 1014.7
20260505064702 16 145 3.2 3.2 0.00 0.00 0.00 63 1015.1
20260505064200 16 126 3.2 3.2 0.00 0.00 0.00 62 1014.9
20260505063657 16 149 1.6 3.2 0.00 0.00 0.00 62 1014.7
20260505063153 16 133 3.2 4.8 0.00 0.00 0.00 63 1014.8
20260505062649 16 145 4.8 4.8 0.00 0.00 0.00 61 1014.7
20260505062147 16 139 3.2 3.2 0.00 0.00 0.00 61 1014.7
20260505061644 16 159 3.2 3.2 0.00 0.00 0.00 61 1014.8
20260505061143 16 112 1.6 4.8 0.00 0.00 0.00 60 1014.7
20260505060640 16 121 1.6 4.8 0.00 0.00 0.00 59 1014.7
20260505060136 16 126 1.6 4.8 0.00 0.00 0.00 58 1014.8
20260505055631 16 137 3.2 3.2 0.00 0.00 0.00 58 1014.7
20260505055128 16 162 3.2 4.8 0.00 0.00 0.00 58 1014.6
20260505054626 16 119 0.0 3.2 0.00 0.00 0.00 57 1014.8
20260505054124 17 160 1.6 4.8 0.00 0.00 0.00 57 1014.5
20260505053620 17 43 0.0 4.8 0.00 0.00 0.00 56 1014.8
20260505053116 17 156 3.2 4.8 0.00 0.00 0.00 57 1014.7
20260505052614 17 108 3.2 3.2 0.00 0.00 0.00 54 1014.7
20260505052112 17 143 1.6 3.2 0.00 0.00 0.00 54 1014.7
20260505051608 17 103 1.6 3.2 0.00 0.00 0.00 53 1014.7
20260505051107 17 111 3.2 3.2 0.00 0.00 0.00 53 1014.7
20260505050604 17 133 1.6 4.8 0.00 0.00 0.00 55 1014.5
20260505041532 16 138 3.2 3.2 0.00 0.00 0.00 63 1014.0
20260505041029 16 140 1.6 3.2 0.00 0.00 0.00 63 1014.2
20260505040526 16 150 3.2 3.2 0.00 0.00 0.00 64 1014.2
20260505040024 16 149 3.2 4.8 0.00 0.00 0.00 61 1013.9
20260505035520 16 138 3.2 3.2 0.00 0.00 0.00 60 1014.0
20260505035017 16 154 3.2 3.2 0.00 0.00 0.00 59 1014.1
20260505034513 16 164 3.2 4.8 0.00 0.00 0.00 60 1013.9
20260505034010 16 171 3.2 4.8 0.00 0.00 0.00 62 1014.1
20260505033507 16 138 3.2 3.2 0.00 0.00 0.00 65 1014.1
20260505033005 16 166 3.2 3.2 0.00 0.00 0.00 69 1014.1
20260505032502 16 159 3.2 4.8 0.00 0.00 0.00 66 1014.0
20260505031959 16 149 3.2 3.2 0.00 0.00 0.00 61 1014.2
20260505031455 16 148 3.2 4.8 0.00 0.00 0.00 57 1014.3
20260505030952 16 154 3.2 3.2 0.00 0.00 0.00 58 1013.9
20260505030449 16 157 3.2 4.8 0.00 0.00 0.00 59 1014.2
20260505025944 16 143 3.2 3.2 0.00 0.00 0.00 58 1014.2
20260505025441 17 168 3.2 3.2 0.00 0.00 0.00 60 1014.3
20260505024940 17 155 1.6 3.2 0.00 0.00 0.00 61 1014.2
20260505024437 17 146 3.2 3.2 0.00 0.00 0.00 61 1014.3
20260505023934 17 141 3.2 3.2 0.00 0.00 0.00 59 1014.1
20260505023431 17 127 3.2 4.8 0.00 0.00 0.00 56 1014.0
20260505022928 17 138 3.2 3.2 0.00 0.00 0.00 58 1014.1
20260505022426 17 170 3.2 3.2 0.00 0.00 0.00 57 1014.1
20260505021923 17 158 3.2 4.8 0.00 0.00 0.00 58 1014.2
20260505021419 17 160 4.8 4.8 0.00 0.00 0.00 56 1013.9
20260505020915 17 149 3.2 4.8 0.00 0.00 0.00 57 1014.1
20260505020410 17 147 3.2 3.2 0.00 0.00 0.00 56 1014.0
20260505015908 17 161 3.2 3.2 0.00 0.00 0.00 52 1014.0
20260505015405 18 158 3.2 4.8 0.00 0.00 0.00 52 1014.1
20260505014902 18 157 3.2 4.8 0.00 0.00 0.00 53 1014.0
20260505014359 18 161 3.2 4.8 0.00 0.00 0.00 55 1013.9
20260505013855 18 163 3.2 4.8 0.00 0.00 0.00 55 1013.8
20260505013352 18 151 3.2 4.8 0.00 0.00 0.00 57 1013.7
20260505012851 18 160 3.2 4.8 0.00 0.00 0.00 57 1013.7
20260505012349 18 153 1.6 3.2 0.00 0.00 0.00 54 1013.5
20260505011844 18 157 3.2 3.2 0.00 0.00 0.00 54 1013.7
20260505011341 18 144 0.0 3.2 0.00 0.00 0.00 56 1013.3
20260505010837 18 150 3.2 3.2 0.00 0.00 0.00 52 1013.6
20260505010333 18 168 1.6 3.2 0.00 0.00 0.00 54 1013.4
20260505005830 18 158 3.2 3.2 0.00 0.00 0.00 52 1013.2
20260505005327 18 160 3.2 4.8 0.00 0.00 0.00 51 1013.3
20260505004825 19 158 3.2 4.8 0.00 0.00 0.00 58 1013.2
20260505004320 20 161 3.2 4.8 0.00 0.00 0.00 57 1013.2
20260505003818 20 147 1.6 3.2 0.00 0.00 0.00 54 1013.0
20260505003315 20 165 3.2 3.2 0.00 0.00 0.00 47 1013.4
20260505002811 20 103 0.0 3.2 0.00 0.00 0.00 49 1013.2
20260505002308 20 163 1.6 3.2 0.00 0.00 0.00 50 1013.2
20260505001807 20 149 3.2 3.2 0.00 0.00 0.00 52 1013.3
20260505001303 21 119 1.6 3.2 0.00 0.00 0.00 52 1013.2
20260505000800 21 144 3.2 4.8 0.00 0.00 0.00 42 1012.9
20260505000258 21 81 0.0 3.2 0.00 0.00 0.00 48 1013.3
20260504235754 21 159 3.2 3.2 0.00 0.00 0.00 43 1013.7
20260504235245 21 169 3.2 3.2 0.00 0.00 0.00 42 1013.6
20260504234742 21 169 3.2 3.2 0.00 0.00 0.00 43 1013.6
20260504234240 21 170 3.2 4.8 0.00 0.00 0.00 41 1013.4
20260504233736 22 158 3.2 3.2 0.00 0.00 0.00 39 1013.2
20260504233232 22 171 3.2 3.2 0.00 0.00 0.00 38 1013.2
20260504232729 22 166 3.2 4.8 0.00 0.00 0.00 38 1013.4
20260504232226 22 160 3.2 3.2 0.00 0.00 0.00 38 1013.1
20260504231722 22 176 1.6 4.8 0.00 0.00 0.00 38 1013.1
20260504231218 22 169 4.8 4.8 0.00 0.00 0.00 37 1013.0
20260504230714 22 151 3.2 3.2 0.00 0.00 0.00 37 1013.1
20260504230213 23 109 3.2 4.8 0.00 0.00 0.00 36 1012.9
20260504225712 23 151 1.6 4.8 0.00 0.00 0.00 36 1012.8
20260504225208 23 71 3.2 4.8 0.00 0.00 0.00 36 1013.0
20260504224705 23 137 1.6 4.8 0.00 0.00 0.00 35 1013.0
20260504224203 23 156 4.8 4.8 0.00 0.00 0.00 35 1013.1
20260504223659 23 227 1.6 4.8 0.00 0.00 0.00 34 1013.0
20260504223154 24 105 0.0 4.8 0.00 0.00 0.00 34 1012.9
20260504222652 24 230 3.2 4.8 0.00 0.00 0.00 34 1013.1
20260504222148 25 204 1.6 3.2 0.00 0.00 0.00 32 1013.3
20260504221645 25 168 3.2 4.8 0.00 0.00 0.00 32 1013.0
20260504221143 25 204 6.4 6.4 0.00 0.00 0.00 33 1013.0
20260504220639 25 176 3.2 4.8 0.00 0.00 0.00 33 1013.1
20260504220137 25 172 1.6 4.8 0.00 0.00 0.00 31 1013.2
20260504215633 25 126 0.0 6.4 0.00 0.00 0.00 31 1013.1
20260504215131 25 154 1.6 4.8 0.00 0.00 0.00 31 1012.9
20260504214626 25 147 1.6 6.4 0.00 0.00 0.00 32 1013.0
20260504214122 25 141 3.2 6.4 0.00 0.00 0.00 33 1012.8
20260504213619 25 132 1.6 4.8 0.00 0.00 0.00 33 1013.0
20260504213116 25 98 3.2 4.8 0.00 0.00 0.00 31 1013.2
20260504212612 25 100 0.0 4.8 0.00 0.00 0.00 33 1012.8
20260504212109 25 186 0.0 3.2 0.00 0.00 0.00 30 1012.8
20260504211606 25 198 3.2 3.2 0.00 0.00 0.00 31 1013.0
20260504211103 25 139 8.0 8.0 0.00 0.00 0.00 31 1013.1
20260504210601 25 173 1.6 4.8 0.00 0.00 0.00 30 1013.0
20260504210057 25 79 0.0 4.8 0.00 0.00 0.00 32 1013.0
20260504205555 26 86 0.0 4.8 0.00 0.00 0.00 32 1013.0
20260504205052 25 96 3.2 4.8 0.00 0.00 0.00 30 1012.8
20260504204550 25 178 3.2 3.2 0.00 0.00 0.00 32 1013.0
20260504204049 25 98 1.6 4.8 0.00 0.00 0.00 31 1013.0
20260504203546 25 223 0.0 1.6 0.00 0.00 0.00 31 1013.0
20260504203044 25 175 0.0 4.8 0.00 0.00 0.00 31 1013.1
20260504202539 25 152 3.2 8.0 0.00 0.00 0.00 30 1013.3
20260504202037 25 189 1.6 8.0 0.00 0.00 0.00 31 1013.3
20260504201533 25 201 3.2 8.0 0.00 0.00 0.00 30 1013.4
20260504201032 25 45 3.2 4.8 0.00 0.00 0.00 32 1013.1
20260504200527 26 216 9.7 9.7 0.00 0.00 0.00 29 1013.3
20260504200024 25 202 3.2 3.2 0.00 0.00 0.00 30 1013.4
20260504195520 25 191 1.6 3.2 0.00 0.00 0.00 32 1013.2
20260504195017 25 164 3.2 4.8 0.00 0.00 0.00 32 1013.4
20260504194514 26 6 1.6 4.8 0.00 0.00 0.00 29 1013.5
20260504194009 26 144 6.4 8.0 0.00 0.00 0.00 29 1013.7
20260504193506 25 156 4.8 6.4 0.00 0.00 0.00 29 1013.7
20260504193005 26 125 3.2 3.2 0.00 0.00 0.00 30 1013.7
20260504192502 25 128 3.2 8.0 0.00 0.00 0.00 29 1013.8
20260504192001 25 183 3.2 3.2 0.00 0.00 0.00 28 1013.9
20260504191458 25 199 1.6 4.8 0.00 0.00 0.00 31 1014.2
20260504190953 25 161 1.6 3.2 0.00 0.00 0.00 31 1014.3
20260504190449 25 309 1.6 6.4 0.00 0.00 0.00 33 1014.2
20260504185946 25 119 0.0 6.4 0.00 0.00 0.00 32 1014.5
20260504185443 25 172 1.6 8.0 0.00 0.00 0.00 29 1014.8
20260504184939 24 157 4.8 8.0 0.00 0.00 0.00 31 1014.7
20260504184435 24 68 0.0 4.8 0.00 0.00 0.00 32 1014.8
20260504183931 24 225 0.0 4.8 0.00 0.00 0.00 31 1014.8
20260504183429 24 123 1.6 6.4 0.00 0.00 0.00 33 1014.8
20260504182926 23 201 1.6 8.0 0.00 0.00 0.00 30 1014.9
20260504182423 23 145 4.8 8.0 0.00 0.00 0.00 30 1014.9
20260504181920 23 155 4.8 6.4 0.00 0.00 0.00 31 1014.8
20260504181417 23 132 3.2 4.8 0.00 0.00 0.00 33 1015.0
20260504180916 23 125 4.8 6.4 0.00 0.00 0.00 31 1015.0
20260504180415 23 86 4.8 4.8 0.00 0.00 0.00 33 1015.1
20260504175912 22 149 0.0 4.8 0.00 0.00 0.00 34 1014.9
20260504175409 22 88 3.2 4.8 0.00 0.00 0.00 34 1015.3
20260504174907 22 156 4.8 4.8 0.00 0.00 0.00 35 1015.0
20260504174404 22 146 3.2 4.8 0.00 0.00 0.00 34 1015.0
20260504173901 22 96 0.0 3.2 0.00 0.00 0.00 34 1015.0
20260504173357 22 185 3.2 4.8 0.00 0.00 0.00 33 1015.3
20260504172855 22 83 0.0 4.8 0.00 0.00 0.00 35 1014.9
20260504172351 22 131 3.2 4.8 0.00 0.00 0.00 34 1015.0
20260504171847 22 127 1.6 4.8 0.00 0.00 0.00 33 1015.3
20260504171344 22 136 4.8 8.0 0.00 0.00 0.00 30 1015.2
20260504170842 22 140 3.2 4.8 0.00 0.00 0.00 32 1015.5
20260504170338 22 167 0.0 4.8 0.00 0.00 0.00 33 1015.5
20260504160256 21 107 3.2 6.4 0.00 0.00 0.00 34 1015.8
20260504150722 20 177 1.6 3.2 0.00 0.00 0.00 36 1016.6
20260504150219 20 137 1.6 4.8 0.00 0.00 0.00 37 1016.6
20260504141148 18 52 0.0 3.2 0.00 0.00 0.00 44 1016.9
20260504140645 18 183 0.0 4.8 0.00 0.00 0.00 45 1016.9
20260504140140 17 138 3.2 4.8 0.00 0.00 0.00 45 1017.1
20260504130609 15 144 3.2 6.4 0.00 0.00 0.00 52 1017.2
20260504130105 13 148 4.8 6.4 0.00 0.00 0.00 55 1017.4